Location: Charlottesville
(38.0290°N, 78.4770°W)
Time: 07:55:33
(UTC-04:00)

Vanguard 1 Rocket - Visible Passes

Search period start: 19 July 2018 00:00
Search period end: 29 July 2018 00:00
Orbit: 652 x 4225 km, 34.3° (Epoch: 18 July)

Date Brightness Start Highest point End Pass type
(mag) Time Alt. Az. Time Alt. Az. Time Alt. Az.
19 Jul 11.8 05:27:11 10° S 05:42:00 19° SE 05:54:24 10° ESE visible
21 Jul 11.6 05:26:04 10° S 05:44:29 25° SE 05:59:31 10° E visible
22 Jul 11.7 04:18:35 10° SSE 04:30:49 16° SE 04:42:08 10° ESE visible
23 Jul 11.5 05:26:01 10° SSW 05:46:51 32° SE 06:03:45 10° E visible
24 Jul 11.6 04:16:35 10° S 04:33:05 22° SE 04:48:13 10° E visible
25 Jul 11.7 03:13:28 10° SE 03:19:42 11° SE 03:25:54 10° ESE visible
25 Jul 11.3 05:26:40 10° SSW 05:49:07 39° SE 06:07:29 10° E visible
26 Jul 11.5 04:16:10 10° S 04:35:12 28° SE 04:52:53 10° E visible
27 Jul 11.5 03:08:47 10° SSE 03:21:47 17° SE 03:34:53 10° E visible
27 Jul 11.2 05:27:48 10° SSW 05:51:20 46° SE 06:10:54 10° E visible
28 Jul 11.3 04:17:03 11° SSW 04:37:14 34° SE 04:56:49 10° E visible
